観測年月日,2015/10/15,,,
観測者,藤田高壮,,,
観測地点,7,,,
温度計番号,A021,,,
,,,,
時刻,気温,風向,風速,備考
 15:00:00,   21.268662296959931     
 15:01:00,   21.064022568794943     
 15:02:00,   21.268662296959931     
 15:03:00,   21.268662296959931     
 15:04:00,   21.166342432877439     
 15:05:00,   21.370982161042420     
 15:06:00,   21.268662296959931     
 15:07:00,   21.166342432877439     
 15:08:00,   21.064022568794943     
 15:09:00,   21.268662296959931     
 15:10:00,   21.166342432877439     
 15:11:00,   21.166342432877439     
 15:12:00,   21.166342432877439     
 15:13:00,   21.166342432877439     
 15:14:00,   21.166342432877439     
 15:15:00,   21.166342432877439     
 15:16:00,   21.166342432877439     
 15:17:00,   21.166342432877439     
 15:18:00,   21.268662296959931     
 15:19:00,   21.268662296959931     
 15:20:00,   21.166342432877439     
 15:21:00,   21.166342432877439     
 15:22:00,   21.166342432877439     
 15:23:00,   21.166342432877439     
 15:24:00,   21.166342432877439     
 15:25:00,   21.166342432877439     
 15:26:00,   21.166342432877439     
 15:27:00,   21.166342432877439     
 15:28:00,   21.166342432877439     
 15:29:00,   21.166342432877439     
 15:30:00,   21.166342432877439     
 15:31:00,   21.064022568794943     
 15:32:00,   21.064022568794943     
 15:33:00,   21.166342432877439     
 15:34:00,   21.064022568794943     
 15:35:00,   21.064022568794943     
 15:36:00,   21.166342432877439     
 15:37:00,   21.166342432877439     
 15:38:00,   20.961702704712454     
 15:39:00,   20.961702704712454     
 15:40:00,   20.961702704712454     
 15:41:00,   20.859382840629959     
 15:42:00,   20.859382840629959     
 15:43:00,   20.859382840629959     
 15:44:00,   20.859382840629959     
 15:45:00,   20.961702704712454     
 15:46:00,   20.961702704712454     
 15:47:00,   21.064022568794943     
 15:48:00,   20.961702704712454     
 15:49:00,   20.961702704712454     
 15:50:00,   20.961702704712454     
 15:51:00,   20.859382840629959     
 15:52:00,   20.859382840629959     
 15:53:00,   20.859382840629959     
 15:54:00,   20.757062976547470     
 15:55:00,   20.757062976547470     
 15:56:00,   20.859382840629959     
 15:57:00,   20.654743112464974     
 15:58:00,   20.654743112464974     
 15:59:00,   20.654743112464974     
 16:00:00,   20.654743112464974     
 16:01:00,   20.654743112464974     
 16:02:00,   20.552423248382482     
 16:03:00,   20.450103384299990     
 16:04:00,   20.245463656135005     
 16:05:00,   20.245463656135005     
 16:06:00,   20.143143792052513     
 16:07:00,   20.245463656135005     
 16:08:00,   20.143143792052513     
 16:09:00,   20.143143792052513     
 16:10:00,   20.143143792052513     
 16:11:00,   20.143143792052513     
 16:12:00,   20.143143792052513     
 16:13:00,   20.143143792052513     
 16:14:00,   20.143143792052513     
 16:15:00,   20.143143792052513     
 16:16:00,   20.143143792052513     
 16:17:00,   20.143143792052513     
 16:18:00,   20.143143792052513     
 16:19:00,   20.143143792052513     
 16:20:00,   20.143143792052513     
 16:21:00,   20.143143792052513     
 16:22:00,   20.143143792052513     
 16:23:00,   20.040823927970017     
 16:24:00,   20.143143792052513     
 16:25:00,   20.143143792052513     
 16:26:00,   20.143143792052513     
 16:27:00,   20.143143792052513     
 16:28:00,   20.143143792052513     
 16:29:00,   20.143143792052513     
 16:30:00,   20.143143792052513     
 16:31:00,   20.040823927970017     
 16:32:00,   20.143143792052513     
 16:33:00,   20.143143792052513     
 16:34:00,   20.143143792052513     
 16:35:00,   20.143143792052513     
 16:36:00,   20.040823927970017     
 16:37:00,   20.040823927970017     
 16:38:00,   20.040823927970017     
 16:39:00,   20.040823927970017     
 16:40:00,   20.040823927970017     
 16:41:00,   20.040823927970017     
 16:42:00,   20.040823927970017     
 16:43:00,   19.938504063887528     
 16:44:00,   20.040823927970017     
 16:45:00,   20.040823927970017     
 16:46:00,   19.938504063887528     
 16:47:00,   19.938504063887528     
 16:48:00,   19.938504063887528     
 16:49:00,   20.040823927970017     
 16:50:00,   20.143143792052513     
 16:51:00,   19.938504063887528     
 16:52:00,   19.836184199805032     
 16:53:00,   19.836184199805032     
 16:54:00,   19.733864335722544     
 16:55:00,   19.631544471640048     
 16:56:00,   19.426904743475063     
 16:57:00,   19.426904743475063     
 16:58:00,   19.426904743475063     
 16:59:00,   19.426904743475063     
 17:00:00,   19.426904743475063     
